| time (UTC) | temp C | wind direction | speed KPH | gust KPH | rain 1hr cm | rain 24hr cm | rain mn cm | humidity % | barometer mb |
| 20260905071503 | 12 | 133 | 0.0 | 1.6 | 0.00 | 0.03 | 0.00 | 76 | 1016.1 |
| 20260905070002 | 12 | 184 | 0.0 | 1.6 | 0.00 | 0.03 | 0.00 | 76 | 1016.1 |
| 20260905064559 | 12 | 86 | 0.0 | 0.0 | 0.00 | 0.03 | 0.03 | 76 | 1016.0 |
| 20260905063100 | 13 | 109 | 0.0 | 1.6 | 0.00 | 0.03 | 0.03 | 72 | 1015.9 |
| 20260905061621 | 12 | 112 | 0.0 | 1.6 | 0.00 | 0.03 | 0.03 | 75 | 1015.8 |
| 20260905060109 | 12 | 105 | 0.0 | 1.6 | 0.00 | 0.03 | 0.03 | 76 | 1015.9 |
| 20260905054556 | 12 | 105 | 0.0 | 1.6 | 0.00 | 0.05 | 0.03 | 74 | 1015.9 |
| 20260905053056 | 12 | 105 | 0.0 | 1.6 | 0.00 | 0.05 | 0.03 | 74 | 1015.8 |
| 20260905051555 | 12 | 110 | 0.0 | 1.6 | 0.00 | 0.05 | 0.03 | 76 | 1015.7 |
| 20260905050055 | 12 | 108 | 0.0 | 0.0 | 0.00 | 0.05 | 0.03 | 75 | 1015.7 |
| 20260905044554 | 12 | 109 | 0.0 | 0.0 | 0.00 | 0.20 | 0.03 | 73 | 1015.7 |
| 20260905043053 | 12 | 109 | 0.0 | 1.6 | 0.00 | 0.20 | 0.03 | 71 | 1015.6 |
| 20260905041600 | 13 | 110 | 0.0 | 0.0 | 0.00 | 0.20 | 0.03 | 68 | 1015.8 |
| 20260905040052 | 13 | 110 | 0.0 | 1.6 | 0.00 | 0.20 | 0.03 | 65 | 1015.7 |
| 20260905034602 | 14 | 110 | 0.0 | 0.0 | 0.00 | 0.81 | 0.03 | 64 | 1015.6 |
| 20260905033051 | 15 | 110 | 0.0 | 1.6 | 0.00 | 0.81 | 0.03 | 60 | 1015.6 |
| 20260905031550 | 15 | 109 | 0.0 | 9.7 | 0.00 | 0.81 | 0.03 | 59 | 1015.3 |
| 20260905030047 | 15 | 94 | 4.8 | 16.1 | 0.00 | 0.81 | 0.03 | 56 | 1015.2 |
| 20260905024546 | 16 | 111 | 3.2 | 12.9 | 0.00 | 0.81 | 0.03 | 56 | 1015.3 |
| 20260905023046 | 16 | 122 | 4.8 | 19.3 | 0.00 | 0.81 | 0.03 | 56 | 1015.3 |
| 20260905021551 | 16 | 77 | 0.0 | 4.8 | 0.00 | 0.81 | 0.03 | 56 | 1015.2 |
| 20260905020043 | 16 | 225 | 0.0 | 6.4 | 0.00 | 0.81 | 0.03 | 55 | 1015.1 |
| 20260905014541 | 17 | 202 | 1.6 | 6.4 | 0.00 | 0.81 | 0.03 | 52 | 1015.1 |
| 20260905013040 | 17 | 331 | 1.6 | 6.4 | 0.00 | 0.81 | 0.03 | 54 | 1015.0 |
| 20260905011543 | 18 | 49 | 1.6 | 8.0 | 0.00 | 0.81 | 0.03 | 52 | 1014.5 |
| 20260905010036 | 18 | 74 | 3.2 | 6.4 | 0.00 | 0.81 | 0.03 | 46 | 1014.5 |
| 20260905004543 | 18 | 111 | 3.2 | 9.7 | 0.00 | 0.81 | 0.03 | 47 | 1014.4 |
| 20260905003034 | 18 | 79 | 1.6 | 11.3 | 0.00 | 0.81 | 0.03 | 47 | 1014.1 |
| 20260905001547 | 18 | 103 | 6.4 | 14.5 | 0.00 | 0.81 | 0.03 | 44 | 1014.0 |
| 20260905000032 | 19 | 104 | 6.4 | 16.1 | 0.00 | 0.81 | 0.03 | 46 | 1014.1 |
| 20260904234537 | 18 | 85 | 9.7 | 14.5 | 0.00 | 0.81 | 0.03 | 48 | 1013.9 |
| 20260904233040 | 18 | 94 | 6.4 | 17.7 | 0.00 | 0.81 | 0.03 | 50 | 1013.9 |
| 20260904231538 | 18 | 90 | 8.0 | 20.9 | 0.00 | 0.81 | 0.03 | 50 | 1014.0 |
| 20260904230029 | 17 | 95 | 8.0 | 17.7 | 0.00 | 0.81 | 0.03 | 54 | 1013.9 |
| 20260904224627 | 17 | 73 | 9.7 | 16.1 | 0.00 | 0.81 | 0.03 | 53 | 1014.0 |
| 20260904223026 | 18 | 105 | 8.0 | 11.3 | 0.00 | 0.81 | 0.03 | 53 | 1013.9 |
| 20260904221526 | 18 | 96 | 4.8 | 11.3 | 0.00 | 0.81 | 0.03 | 52 | 1013.9 |
| 20260904220026 | 18 | 75 | 6.4 | 16.1 | 0.00 | 0.81 | 0.03 | 48 | 1013.9 |
| 20260904214523 | 19 | 298 | 1.6 | 8.0 | 0.00 | 0.81 | 0.03 | 46 | 1013.9 |
| 20260904213025 | 19 | 327 | 3.2 | 16.1 | 0.00 | 0.81 | 0.03 | 45 | 1013.7 |
| 20260904211521 | 20 | 308 | 1.6 | 8.0 | 0.00 | 0.81 | 0.03 | 47 | 1013.6 |
| 20260904210020 | 20 | 335 | 1.6 | 22.5 | 0.00 | 0.81 | 0.03 | 43 | 1013.4 |
| 20260904204517 | 20 | 335 | 3.2 | 12.9 | 0.00 | 0.81 | 0.03 | 43 | 1013.3 |
| 20260904203014 | 20 | 345 | 6.4 | 11.3 | 0.00 | 0.81 | 0.03 | 44 | 1013.1 |
| 20260904201512 | 20 | 57 | 6.4 | 11.3 | 0.00 | 0.81 | 0.03 | 46 | 1013.2 |
| 20260904200011 | 20 | 39 | 1.6 | 12.9 | 0.00 | 0.81 | 0.03 | 46 | 1013.3 |
| 20260904194508 | 19 | 32 | 4.8 | 12.9 | 0.00 | 0.81 | 0.03 | 46 | 1013.5 |
| 20260904193006 | 18 | 297 | 1.6 | 9.7 | 0.00 | 0.81 | 0.03 | 49 | 1013.5 |
| 20260904191503 | 18 | 239 | 4.8 | 9.7 | 0.00 | 0.81 | 0.03 | 49 | 1013.5 |
| 20260904190106 | 18 | 256 | 4.8 | 12.9 | 0.00 | 0.81 | 0.03 | 50 | 1013.5 |
| 20260904184559 | 17 | 257 | 3.2 | 8.0 | 0.00 | 0.81 | 0.03 | 52 | 1013.6 |
| 20260904183059 | 17 | 281 | 4.8 | 6.4 | 0.00 | 0.81 | 0.03 | 50 | 1013.6 |
| 20260904181555 | 17 | 124 | 0.0 | 4.8 | 0.00 | 0.81 | 0.03 | 51 | 1013.5 |
| 20260904180056 | 17 | 86 | 0.0 | 3.2 | 0.00 | 0.81 | 0.03 | 53 | 1013.6 |
| 20260904174549 | 16 | 139 | 0.0 | 3.2 | 0.00 | 0.81 | 0.03 | 58 | 1013.7 |
| 20260904173052 | 16 | 146 | 0.0 | 4.8 | 0.00 | 0.81 | 0.03 | 61 | 1013.7 |
| 20260904171546 | 16 | 295 | 1.6 | 4.8 | 0.00 | 0.81 | 0.03 | 62 | 1013.7 |
| 20260904170046 | 15 | 222 | 1.6 | 4.8 | 0.00 | 0.81 | 0.03 | 66 | 1013.6 |
| 20260904164538 | 14 | 243 | 0.0 | 1.6 | 0.00 | 0.81 | 0.03 | 69 | 1013.7 |
| 20260904163035 | 13 | 179 | 0.0 | 4.8 | 0.00 | 0.81 | 0.03 | 75 | 1013.6 |
| 20260904161532 | 12 | 107 | 0.0 | 3.2 | 0.00 | 0.81 | 0.03 | 79 | 1013.6 |
| 20260904160027 | 11 | 110 | 1.6 | 4.8 | 0.00 | 0.81 | 0.03 | 80 | 1013.6 |
| 20260904154525 | 11 | 119 | 0.0 | 4.8 | 0.00 | 0.81 | 0.03 | 83 | 1013.5 |
| 20260904153025 | 11 | 142 | 0.0 | 3.2 | 0.00 | 0.81 | 0.03 | 83 | 1013.6 |
| 20260904151526 | 11 | 172 | 0.0 | 0.0 | 0.00 | 0.81 | 0.03 | 84 | 1013.5 |
| 20260904150033 | 11 | 172 | 0.0 | 1.6 | 0.03 | 0.81 | 0.03 | 84 | 1013.5 |
| 20260904144523 | 11 | 110 | 0.0 | 1.6 | 0.03 | 0.81 | 0.03 | 84 | 1013.4 |
| 20260904143021 | 11 | 110 | 0.0 | 1.6 | 0.03 | 0.81 | 0.03 | 85 | 1013.3 |
| 20260904141517 | 11 | 110 | 0.0 | 1.6 | 0.03 | 0.81 | 0.03 | 85 | 1013.0 |
| 20260904140016 | 10 | 110 | 0.0 | 1.6 | 0.00 | 0.79 | 0.00 | 85 | 1012.9 |
| 20260904134515 | 10 | 110 | 0.0 | 1.6 | 0.00 | 0.79 | 0.00 | 87 | 1012.8 |
| 20260904133013 | 10 | 110 | 0.0 | 0.0 | 0.00 | 0.79 | 0.00 | 85 | 1012.7 |
| 20260904131510 | 10 | 110 | 0.0 | 0.0 | 0.00 | 0.79 | 0.00 | 84 | 1012.3 |
| 20260904130009 | 10 | 110 | 0.0 | 1.6 | 0.00 | 0.79 | 0.00 | 85 | 1012.2 |
| 20260904124506 | 10 | 110 | 0.0 | 0.0 | 0.00 | 0.79 | 0.00 | 86 | 1012.0 |
| 20260904123005 | 10 | 110 | 0.0 | 0.0 | 0.00 | 0.79 | 0.00 | 85 | 1011.8 |
| 20260904121504 | 10 | 110 | 0.0 | 1.6 | 0.00 | 0.79 | 0.00 | 85 | 1011.6 |
| 20260904120002 | 10 | 110 | 0.0 | 0.0 | 0.00 | 0.79 | 0.00 | 86 | 1011.4 |
| 20260904114504 | 10 | 110 | 0.0 | 0.0 | 0.00 | 0.79 | 0.00 | 87 | 1011.4 |
| 20260904113200 | 10 | 110 | 0.0 | 0.0 | 0.00 | 0.79 | 0.00 | 85 | 1011.3 |
| 20260904111558 | 10 | 110 | 0.0 | 1.6 | 0.00 | 0.79 | 0.00 | 83 | 1011.2 |
| 20260904110056 | 10 | 110 | 0.0 | 1.6 | 0.00 | 0.79 | 0.00 | 83 | 1010.9 |
| 20260904104553 | 10 | 110 | 0.0 | 3.2 | 0.00 | 0.79 | 0.00 | 84 | 1010.8 |
| 20260904103051 | 10 | 110 | 0.0 | 1.6 | 0.00 | 0.79 | 0.00 | 85 | 1010.6 |
| 20260904101550 | 10 | 110 | 0.0 | 1.6 | 0.00 | 0.79 | 0.00 | 87 | 1010.5 |
| 20260904100048 | 9 | 110 | 0.0 | 0.0 | 0.00 | 0.79 | 0.00 | 90 | 1010.2 |
| 20260904094647 | 9 | 110 | 0.0 | 0.0 | 0.00 | 0.79 | 0.00 | 88 | 1010.1 |
| 20260904093053 | 9 | 110 | 0.0 | 0.0 | 0.00 | 0.79 | 0.00 | 87 | 1010.1 |
| 20260904091552 | 9 | 110 | 0.0 | 1.6 | 0.00 | 0.79 | 0.00 | 87 | 1010.1 |
| 20260904090044 | 9 | 110 | 0.0 | 0.0 | 0.00 | 0.79 | 0.00 | 90 | 1010.0 |
| 20260904084545 | 9 | 110 | 0.0 | 1.6 | 0.00 | 0.79 | 0.00 | 90 | 1010.1 |
| 20260904083042 | 9 | 110 | 0.0 | 0.0 | 0.00 | 0.79 | 0.00 | 87 | 1010.1 |
| 20260904081540 | 10 | 110 | 0.0 | 1.6 | 0.00 | 0.79 | 0.00 | 86 | 1010.1 |
| 20260904080140 | 10 | 131 | 0.0 | 1.6 | 0.00 | 0.79 | 0.00 | 88 | 1009.9 |
| 20260904074552 | 9 | 86 | 0.0 | 1.6 | 0.00 | 0.79 | 0.00 | 89 | 1009.9 |
| 20260904073035 | 9 | 86 | 0.0 | 0.0 | 0.00 | 0.79 | 0.00 | 89 | 1009.8 |